Location: Unspecified
(0.0000°N, 0.0000°E)
Time: 11:24:42
(UTC+00:00)

Transit 4A - Pass Details

Date: 23 November 2019
Orbit: 870 x 975 km, 66.8° (Epoch: 07 December)

Event Time Altitude Azimuth Distance (km) Brightness Sun altitude
Rises 07:52:15 0° 327° (NNW) 3,440 10.4 29.3°
Reaches altitude 10° 07:54:49 10° 321° (NW) 2,505 9.8 29.9°
Maximum altitude 08:00:16 43° 250° (WSW) 1,205 8.5 31.2°
Drops below altitude 10° 08:05:48 10° 180° (S) 2,542 10.6 32.4°
Sets 08:08:26 0° 173° (S) 3,496 11.3 33.0°
